INTELSAT 14 (IS-14)

Last updated on Thu Nov 21 2024 00:02:41 GMT+0000 (Coordinated Universal Time)

1 36097U 09064A 24324.39980015 -.00000271 00000+0 00000+0 0 9993 2 36097 0.0171 300.4638 0002876 301.9136 275.5002 1.00272278 54847
UTC large
Height (km)
Speed (km/s)
/
Latitude / Longitude
Inclination (degrees)
Orbital Period (minutes)
Azimuth
Elevation
Range (km)
Doppler Factor

Next 0 passes for location: London (51.5072 / 0.1276)

Sorry there are no passes over London.